Weather History for Niagara Falls, NY

Change the Weather History Date:

Friday, November 23, 2012

  Actual Average Record
Temperature  
Mean Temperature 43 °F -  
Max Temperature 52 °F 43 °F 68 °F (1999)
Min Temperature 33 °F 29 °F 15 °F (1989)
Degree Days  
Heating Degree Days 22    
Moisture  
Dew Point 37 °F    
Average Humidity 71    
Maximum Humidity 90    
Minimum Humidity 50    
Precipitation  
Precipitation 0.02 in - - ()
Sea Level Pressure  
Sea Level Pressure 29.72 in    
Wind  
Wind Speed 18 mph (SW)    
Max Wind Speed 33 mph    
Max Gust Speed 43 mph    
Visibility 8 miles    
Events Rain , Snow    
Averages and records for this station are not official NWS values.
T = Trace of Precipitation, MM = Missing Value Source: NWS Daily Summary

Daily Weather History Graph

Daily Weather History Graph

Search for Another Location

Airport:

Trip Planner

Search our weather history database for the weather conditions in past years. The results will help you decide how hot, cold, wet, or windy it might be!

Date:

Astronomy

Nov. 23, 2012 Rise Set
Actual Time 7:18 AM EST 4:45 PM EST
Civil Twilight 6:47 AM EST 5:16 PM EST
Nautical Twilight 6:12 AM EST 5:51 PM EST
Astronomical Twilight 5:38 AM EST 6:25 PM EST
Moon 2:04 PM EST (11/23) 2:29 AM EST (11/23)
Length of Visible Light 10h 28m
Length of Day
9h 26m
Waxing Gibbous, 79% of the Moon is Illuminated
Nov 23
Waxing Gibbous
Nov 28
Full
Dec 6
Last Quarter
Dec 13
New
Dec 20
First Quarter

Hourly Weather History & Observations

Time (EST) Temp. Windchill Dew Point Humidity Pressure Visibility Wind Dir Wind Speed Gust Speed Precip Events Conditions
12:53 AM 50.0 °F - 34.0 °F 54% 29.91 in 10.0 mi South 10.4 mph - N/A   Clear
1:53 AM 48.9 °F - 34.0 °F 56% 29.87 in 10.0 mi South 12.7 mph - N/A   Clear
2:53 AM 51.1 °F - 33.1 °F 50% 29.84 in 10.0 mi South 15.0 mph - N/A   Scattered Clouds
3:53 AM 52.0 °F - 35.1 °F 53% 29.81 in 10.0 mi South 11.5 mph - N/A   Scattered Clouds
4:53 AM 52.0 °F - 35.1 °F 53% 29.78 in 10.0 mi South 13.8 mph 23.0 mph N/A   Clear
5:53 AM 52.0 °F - 35.1 °F 53% 29.75 in 10.0 mi SSW 16.1 mph - N/A   Clear
6:53 AM 51.1 °F - 35.1 °F 54% 29.73 in 10.0 mi SSW 18.4 mph - N/A   Scattered Clouds
7:01 AM 51.8 °F - 35.6 °F 54% 29.71 in 10.0 mi SSW 16.1 mph - N/A   Mostly Cloudy
7:53 AM 52.0 °F - 37.0 °F 57% 29.72 in 10.0 mi SSW 17.3 mph 23.0 mph N/A   Overcast
8:03 AM 51.8 °F - 37.4 °F 58% 29.70 in 7.0 mi SSW 19.6 mph 31.1 mph 0.00 in Rain Light Rain
8:27 AM 50.0 °F - 42.8 °F 76% 29.70 in 7.0 mi SW 21.9 mph 29.9 mph 0.00 in Rain Light Rain
8:48 AM 48.2 °F - 42.8 °F 82% 29.70 in 7.0 mi SW 18.4 mph 26.5 mph 0.00 in Rain Light Rain
8:53 AM 48.9 °F - 43.0 °F 80% 29.72 in 7.0 mi SW 18.4 mph 25.3 mph 0.00 in Rain Light Rain
9:29 AM 48.2 °F - 44.6 °F 87% 29.69 in 2.0 mi SW 18.4 mph - 0.01 in Rain Light Rain
9:37 AM 48.2 °F - 44.6 °F 87% 29.69 in 3.0 mi SSW 17.3 mph 26.5 mph 0.01 in Rain Light Rain
9:44 AM 48.2 °F - 44.6 °F 87% 29.69 in 4.0 mi SW 21.9 mph 27.6 mph 0.01 in Rain Light Rain
9:53 AM 48.0 °F - 45.0 °F 89% 29.70 in 3.0 mi SSW 23.0 mph 29.9 mph 0.01 in Rain Light Rain
9:58 AM 48.2 °F - 44.6 °F 87% 29.69 in 4.0 mi SSW 18.4 mph 29.9 mph 0.00 in Rain Light Rain
10:07 AM 48.2 °F - 44.6 °F 87% 29.69 in 5.0 mi SSW 19.6 mph 29.9 mph 0.00 in Rain Light Rain
10:15 AM 48.2 °F - 44.6 °F 87% 29.68 in 7.0 mi SSW 16.1 mph - 0.00 in   Overcast
10:53 AM 48.9 °F - 46.0 °F 90% 29.69 in 7.0 mi SSW 18.4 mph 27.6 mph 0.00 in   Overcast
11:14 AM 50.0 °F - 46.4 °F 87% 29.66 in 7.0 mi SW 24.2 mph 27.6 mph 0.01 in Rain Light Rain
11:27 AM 50.0 °F - 46.4 °F 87% 29.66 in 7.0 mi SW 24.2 mph 31.1 mph 0.01 in   Overcast
11:40 AM 51.8 °F - 46.4 °F 82% 29.65 in 7.0 mi SW 20.7 mph 32.2 mph 0.01 in   Mostly Cloudy
11:53 AM 52.0 °F - 45.0 °F 77% 29.66 in 7.0 mi SW 21.9 mph 35.7 mph 0.01 in   Mostly Cloudy
12:08 PM 51.8 °F - 44.6 °F 76% 29.65 in 10.0 mi WSW 33.4 mph 42.6 mph N/A   Mostly Cloudy
12:14 PM 51.8 °F - 42.8 °F 71% 29.65 in 10.0 mi WSW 27.6 mph 42.6 mph N/A   Mostly Cloudy
12:53 PM 52.0 °F - 39.0 °F 61% 29.66 in 10.0 mi WSW 23.0 mph 32.2 mph N/A   Scattered Clouds
1:53 PM 50.0 °F - 39.0 °F 66% 29.67 in 10.0 mi SW 26.5 mph 34.5 mph N/A   Scattered Clouds
2:53 PM 46.9 °F - 35.1 °F 63% 29.68 in 10.0 mi SW 23.0 mph 32.2 mph N/A   Scattered Clouds
3:53 PM 45.0 °F 36.2 °F 28.9 °F 53% 29.70 in 10.0 mi WSW 24.2 mph 33.4 mph N/A   Mostly Cloudy
4:29 PM 44.6 °F 35.3 °F 30.2 °F 57% 29.68 in 10.0 mi WSW 26.5 mph 35.7 mph 0.00 in Rain Light Rain
4:53 PM 44.1 °F 34.2 °F 32.0 °F 63% 29.71 in 10.0 mi WSW 28.8 mph 39.1 mph 0.00 in Rain Light Rain
4:58 PM 44.6 °F 35.5 °F 30.2 °F 57% 29.69 in 10.0 mi West 25.3 mph 35.7 mph 0.00 in   Overcast
5:46 PM 42.8 °F 32.1 °F 32.0 °F 66% 29.69 in 9.0 mi WSW 31.1 mph 38.0 mph 0.00 in Rain Light Rain
5:53 PM 41.0 °F 31.6 °F 33.1 °F 73% 29.71 in 9.0 mi WSW 20.7 mph 42.6 mph 0.00 in Rain Light Rain
6:25 PM 39.2 °F 29.3 °F 33.8 °F 81% 29.70 in 10.0 mi WSW 20.7 mph 31.1 mph 0.00 in   Overcast
6:45 PM 39.2 °F 28.0 °F 32.0 °F 75% 29.71 in 9.0 mi West 26.5 mph 35.7 mph 0.00 in Rain Light Rain
6:53 PM 37.9 °F 26.3 °F 30.9 °F 76% 29.75 in 10.0 mi West 26.5 mph 39.1 mph 0.00 in Rain Light Rain
7:05 PM 37.4 °F 26.4 °F 30.2 °F 75% 29.73 in 10.0 mi West 23.0 mph 29.9 mph 0.00 in Rain Light Rain
7:27 PM 35.6 °F 24.0 °F 30.2 °F 81% 29.74 in 10.0 mi West 23.0 mph 29.9 mph 0.00 in Rain , Snow Light Rain
7:45 PM 35.6 °F 24.5 °F 28.4 °F 75% 29.74 in 9.0 mi West 20.7 mph 29.9 mph 0.00 in   Overcast
7:53 PM 35.1 °F 24.5 °F 28.0 °F 76% 29.77 in 10.0 mi West 18.4 mph 26.5 mph 0.00 in   Overcast
8:53 PM 35.1 °F 22.0 °F 25.0 °F 67% 29.78 in 10.0 mi West 28.8 mph 35.7 mph N/A   Overcast
9:53 PM 34.0 °F 21.8 °F 24.1 °F 67% 29.78 in 10.0 mi WSW 23.0 mph 31.1 mph N/A   Overcast
10:53 PM 34.0 °F 22.1 °F 24.1 °F 67% 29.77 in 10.0 mi WSW 21.9 mph 31.1 mph N/A   Overcast
11:53 PM 33.1 °F - 24.1 °F 70% 29.78 in 7.0 mi North - - 0.00 in Snow Light Snow